Regional Weather Roundup
Issued by NWS

Home | Current Version | Previous Version | Text Only | Print | Product List | Glossary On
Versions: 1 2 3 4 5 6 7 8 9 10 11 12 13 14 15 16 17 18 19 20 21 22 23 24 25 26 27
000
ASUS45 KREV 222210
RWRNV
NEVADA REGIONAL WEATHER ROUNDUP
NATIONAL WEATHER SERVICE RENO NV
300 PM PDT WED OCT 22 2014

NOTE: "FAIR" INDICATES FEW OR NO CLOUDS BELOW 12,000 FEET WITH NO
SIGNIFICANT WEATHER AND/OR OBSTRUCTIONS TO VISIBILITY.

NVZ001-003-004-222300-
WESTERN NEVADA

CITY           SKY/WX    TMP DP  RH WIND       PRES   REMARKS
RENO           CLOUDY    68  26  20 CALM      30.07F
CARSON CITY    FAIR      70  23  17 E12       30.08S
MINDEN         FAIR      70  27  19 N6        30.08
SLIDE MTN        N/A     45  28  53 W17         N/A
FALLON         CLOUDY    69  18  14 NE6       30.05F
LOVELOCK       MOSUNNY   65  21  18 VRB5      30.07F
HAWTHORNE      SUNNY     70  23  17 CALM      30.06F
$$

NVZ002-CAZ072-073-222300-
NORTHERN AND CENTRAL SIERRA

CITY           SKY/WX    TMP DP  RH WIND       PRES   REMARKS
S. LAKE TAHOE  MOSUNNY   66  26  22 S12G20    30.15S
TRUCKEE        PTSUNNY   64  27  24 SW16G22   30.14S
SQUAW VLY 8000 NOT AVBL
SUSANVILLE     SUNNY     61  32  33 E3        30.07F
BLUE CANYON    MOSUNNY   57  28  33 S8        30.17S
MAMMOTH LAKES  FAIR      68  18  14 E13       30.19S
$$

NVZ030-031-036-222300-
NORTHERN NEVADA

CITY           SKY/WX    TMP DP  RH WIND       PRES   REMARKS
ELKO           PTSUNNY   65  20  17 SW8       30.12F
WINNEMUCCA     SUNNY     67  23  19 S9        30.07F
WENDOVER       SUNNY     57  28  33 SE6       30.17F
$$

NVZ035-037-222300-
CENTRAL NEVADA

CITY           SKY/WX    TMP DP  RH WIND       PRES   REMARKS
ELY            SUNNY     67  22  18 VRB6      30.15F
EUREKA           N/A     66  22  18 VRB6      30.14S
$$

NVZ013-014-222300-
SOUTH CENTRAL NEVADA

CITY           SKY/WX    TMP DP  RH WIND       PRES   REMARKS
TONOPAH        SUNNY     68  16  13 S7        30.14F
$$

NVZ017-020-022-222300-
SOUTHERN NEVADA

CITY           SKY/WX    TMP DP  RH WIND       PRES   REMARKS
LAS VEGAS      MOSUNNY   82  26  13 SE6       29.96F
N. LAS VEGAS   SUNNY     81  23  11 SE3       29.99F
NELLIS AFB     SUNNY     82  29  14 W2        29.98F
HENDERSON      SUNNY     83  28  13 NE5       30.01F
MERCURY        MOSUNNY   80  19  10 W8        30.04S
$$



USA.gov is the U.S. government's official web portal to all federal, state and local government web resources and services.